Precipitable_Water
1.21 1.17 1.18 1.15 1.11 1.07 1.04 0.99 0.95 0.88 0.79 0.73 0.67 0.61 0.57 0.60 0.58 0.48 0.34 0.37 0.46 0.43 0.35 0.29 0.33 0.32 0.32 0.33 0.36 0.38 0.28 0.25 0.28 0.28 0.27 0.31 0.34 0.36 0.38 0.34 0.34 0.36 0.35 0.35 0.39
1.36 1.35 1.30 1.24 1.21 1.18 1.14 1.11 1.08 1.04 0.94 0.85 0.78 0.72 0.68 0.71 0.60 0.49 0.50 0.47 0.46 0.38 0.29 0.29 0.28 0.30 0.28 0.29 0.30 0.28 0.26 0.28 0.31 0.30 0.29 0.31 0.32 0.30 0.32 0.32 0.31 0.31 0.34 0.41 0.46
1.46 1.43 1.42 1.39 1.34 1.29 1.24 1.20 1.17 1.12 1.08 0.98 0.89 0.81 0.77 0.82 0.58 0.48 0.55 0.51 0.43 0.35 0.32 0.32 0.33 0.29 0.25 0.29 0.29 0.28 0.26 0.31 0.31 0.31 0.30 0.29 0.29 0.30 0.26 0.27 0.29 0.28 0.31 0.39 0.39
1.48 1.46 1.45 1.44 1.44 1.41 1.37 1.31 1.26 1.22 1.16 1.07 0.99 0.92 0.91 0.85 0.51 0.62 0.65 0.59 0.48 0.43 0.40 0.37 0.34 0.33 0.31 0.26 0.29 0.25 0.27 0.28 0.30 0.30 0.28 0.28 0.28 0.26 0.26 0.26 0.26 0.27 0.36 0.39 0.38
1.42 1.41 1.41 1.41 1.42 1.41 1.40 1.37 1.34 1.31 1.28 1.18 1.04 0.96 0.91 0.74 0.72 0.76 0.67 0.61 0.54 0.48 0.42 0.39 0.35 0.33 0.32 0.31 0.28 0.28 0.27 0.27 0.29 0.29 0.28 0.28 0.26 0.25 0.24 0.24 0.29 0.34 0.36 0.35 0.37
1.38 1.35 1.36 1.38 1.39 1.38 1.37 1.37 1.35 1.33 1.32 1.27 1.14 1.02 0.85 0.67 0.88 0.74 0.68 0.62 0.55 0.50 0.44 0.41 0.36 0.36 0.33 0.30 0.27 0.28 0.28 0.25 0.27 0.27 0.27 0.25 0.25 0.24 0.23 0.26 0.30 0.33 0.35 0.38 0.40
1.12 1.18 1.21 1.28 1.32 1.32 1.29 1.29 1.32 1.33 1.30 1.30 1.25 1.00 0.82 0.79 0.93 0.83 0.75 0.63 0.59 0.51 0.42 0.40 0.39 0.37 0.34 0.28 0.29 0.28 0.26 0.27 0.26 0.27 0.28 0.27 0.24 0.23 0.23 0.28 0.31 0.35 0.39 0.42 0.43
0.77 0.84 0.92 1.02 1.11 1.17 1.23 1.28 1.26 1.23 1.26 1.27 1.22 0.96 0.72 0.94 0.93 0.86 0.82 0.73 0.63 0.57 0.46 0.43 0.40 0.36 0.32 0.31 0.28 0.27 0.27 0.25 0.29 0.29 0.30 0.28 0.24 0.23 0.24 0.27 0.31 0.37 0.39 0.39 0.40
0.66 0.67 0.70 0.75 0.84 0.93 1.00 1.10 1.15 1.18 1.14 1.17 0.92 0.81 0.66 0.89 0.76 0.81 0.73 0.66 0.58 0.48 0.41 0.42 0.38 0.31 0.31 0.27 0.26 0.27 0.24 0.27 0.31 0.32 0.31 0.29 0.26 0.23 0.25 0.29 0.32 0.35 0.36 0.36 0.39
0.57 0.60 0.63 0.67 0.69 0.72 0.77 0.83 0.86 0.88 0.79 0.84 0.78 0.69 0.74 0.64 0.67 0.69 0.68 0.66 0.54 0.45 0.34 0.35 0.33 0.29 0.30 0.28 0.24 0.27 0.26 0.28 0.27 0.24 0.24 0.23 0.22 0.21 0.22 0.25 0.27 0.32 0.34 0.34 0.34
0.50 0.53 0.60 0.62 0.65 0.74 0.71 0.67 0.50 0.46 0.54 0.43 0.50 0.57 0.63 0.68 0.70 0.60 0.63 0.55 0.47 0.39 0.32 0.29 0.26 0.28 0.32 0.32 0.31 0.30 0.28 0.26 0.27 0.25 0.22 0.22 0.20 0.19 0.21 0.24 0.27 0.29 0.29 0.31 0.32
0.44 0.46 0.49 0.58 0.63 0.71 0.71 0.53 0.55 0.55 0.35 0.50 0.52 0.50 0.54 0.61 0.57 0.61 0.58 0.48 0.42 0.36 0.33 0.30 0.24 0.29 0.35 0.32 0.29 0.27 0.26 0.27 0.28 0.25 0.23 0.20 0.19 0.19 0.22 0.25 0.27 0.28 0.30 0.32 0.33
0.43 0.45 0.48 0.51 0.60 0.61 0.58 0.57 0.70 0.69 0.42 0.41 0.40 0.38 0.36 0.45 0.46 0.50 0.59 0.41 0.42 0.36 0.34 0.28 0.31 0.34 0.28 0.28 0.28 0.28 0.25 0.27 0.25 0.23 0.21 0.19 0.16 0.17 0.25 0.28 0.32 0.33 0.34 0.35 0.33
0.45 0.43 0.52 0.52 0.45 0.51 0.46 0.64 0.72 0.71 0.25 0.25 0.30 0.35 0.41 0.40 0.33 0.50 0.60 0.56 0.34 0.36 0.39 0.32 0.35 0.32 0.31 0.25 0.26 0.23 0.29 0.27 0.25 0.23 0.18 0.20 0.13 0.16 0.21 0.24 0.29 0.32 0.34 0.34 0.34
0.51 0.47 0.56 0.54 0.47 0.41 0.51 0.68 0.73 0.59 0.12 0.22 0.30 0.51 0.50 0.40 0.38 0.41 0.48 0.48 0.36 0.30 0.33 0.30 0.31 0.32 0.29 0.31 0.30 0.23 0.27 0.26 0.25 0.23 0.21 0.18 0.16 0.16 0.24 0.22 0.27 0.32 0.34 0.35 0.36
0.55 0.51 0.57 0.52 0.50 0.53 0.65 0.69 0.63 0.26 0.13 0.18 0.40 0.38 0.40 0.45 0.42 0.45 0.48 0.52 0.45 0.35 0.31 0.33 0.37 0.34 0.33 0.33 0.33 0.31 0.26 0.24 0.23 0.22 0.17 0.18 0.19 0.14 0.19 0.21 0.25 0.31 0.34 0.34 0.35
0.58 0.55 0.57 0.55 0.35 0.57 0.67 0.54 0.24 0.15 0.21 0.17 0.20 0.39 0.40 0.37 0.40 0.44 0.39 0.38 0.33 0.27 0.26 0.29 0.29 0.38 0.37 0.30 0.31 0.30 0.26 0.20 0.16 0.16 0.14 0.18 0.17 0.16 0.20 0.23 0.25 0.29 0.33 0.35 0.37
0.57 0.60 0.60 0.59 0.59 0.59 0.61 0.42 0.18 0.16 0.16 0.24 0.27 0.32 0.30 0.40 0.36 0.35 0.34 0.31 0.40 0.36 0.31 0.29 0.25 0.34 0.34 0.31 0.27 0.27 0.26 0.22 0.19 0.18 0.17 0.20 0.14 0.16 0.29 0.32 0.34 0.36 0.37 0.39 0.39
0.59 0.58 0.53 0.56 0.67 0.58 0.42 0.24 0.20 0.19 0.23 0.22 0.19 0.20 0.21 0.29 0.33 0.39 0.42 0.35 0.37 0.36 0.29 0.27 0.25 0.34 0.34 0.36 0.34 0.26 0.23 0.28 0.24 0.25 0.21 0.21 0.24 0.29 0.34 0.34 0.37 0.38 0.38 0.39 0.41
0.49 0.48 0.47 0.59 0.63 0.54 0.32 0.20 0.20 0.22 0.22 0.26 0.20 0.21 0.15 0.12 0.20 0.29 0.29 0.36 0.37 0.43 0.44 0.34 0.25 0.29 0.30 0.33 0.33 0.31 0.31 0.24 0.24 0.18 0.17 0.19 0.19 0.20 0.28 0.32 0.37 0.39 0.39 0.41 0.42
0.44 0.33 0.43 0.55 0.56 0.40 0.23 0.20 0.22 0.24 0.24 0.22 0.18 0.20 0.22 0.22 0.23 0.23 0.28 0.33 0.36 0.40 0.46 0.41 0.36 0.31 0.30 0.27 0.27 0.28 0.26 0.27 0.27 0.24 0.20 0.18 0.19 0.32 0.31 0.35 0.37 0.40 0.43 0.42 0.41
0.40 0.23 0.47 0.54 0.29 0.31 0.23 0.22 0.24 0.20 0.24 0.22 0.24 0.23 0.21 0.22 0.22 0.22 0.24 0.33 0.42 0.45 0.38 0.40 0.38 0.31 0.30 0.33 0.33 0.29 0.26 0.26 0.22 0.22 0.26 0.24 0.21 0.37 0.40 0.42 0.44 0.43 0.44 0.45 0.44
0.33 0.31 0.51 0.48 0.21 0.21 0.25 0.24 0.25 0.20 0.21 0.21 0.21 0.23 0.25 0.21 0.18 0.22 0.24 0.34 0.38 0.32 0.31 0.38 0.38 0.30 0.31 0.35 0.33 0.27 0.27 0.28 0.29 0.28 0.23 0.22 0.23 0.42 0.43 0.44 0.46 0.45 0.46 0.46 0.45
0.35 0.24 0.32 0.41 0.37 0.26 0.22 0.21 0.21 0.26 0.24 0.27 0.21 0.22 0.18 0.16 0.20 0.18 0.19 0.27 0.35 0.42 0.43 0.38 0.28 0.25 0.22 0.24 0.28 0.25 0.29 0.29 0.27 0.24 0.25 0.25 0.28 0.37 0.40 0.41 0.45 0.47 0.47 0.46 0.45
0.38 0.27 0.28 0.22 0.23 0.29 0.26 0.23 0.22 0.21 0.26 0.26 0.25 0.22 0.18 0.16 0.13 0.12 0.16 0.19 0.26 0.36 0.45 0.42 0.31 0.31 0.27 0.28 0.28 0.29 0.32 0.35 0.33 0.32 0.28 0.30 0.31 0.34 0.38 0.40 0.44 0.47 0.46 0.45 0.42
0.31 0.28 0.32 0.28 0.27 0.24 0.29 0.26 0.22 0.22 0.23 0.20 0.22 0.21 0.23 0.21 0.18 0.16 0.21 0.20 0.19 0.30 0.33 0.43 0.32 0.37 0.32 0.32 0.33 0.31 0.34 0.33 0.33 0.32 0.34 0.33 0.29 0.37 0.41 0.45 0.46 0.46 0.46 0.43 0.41
0.40 0.38 0.31 0.24 0.24 0.24 0.21 0.27 0.25 0.26 0.26 0.24 0.24 0.23 0.23 0.17 0.27 0.31 0.35 0.34 0.33 0.32 0.35 0.41 0.38 0.33 0.26 0.34 0.34 0.28 0.27 0.33 0.34 0.37 0.36 0.27 0.31 0.42 0.41 0.42 0.45 0.46 0.45 0.42 0.41
Wind_Speed
22 21 20 20 19 19 19 19 18 18 18 17 17 17 17 18 17 14 15 14 14 15 15 15 13 13 12 12 12 11 10 12 13 12 12 13 12 12 13 12 13 13 12 12 12
23 22 22 22 21 21 21 20 20 19 19 18 18 18 18 18 16 14 14 14 13 13 12 12 13 14 13 12 13 11 11 15 14 12 13 13 13 13 14 13 13 13 12 11 12
26 25 25 24 24 24 23 22 22 21 21 21 20 20 20 19 17 15 13 13 13 13 13 13 13 12 13 13 13 13 14 15 16 16 15 15 15 15 14 16 17 16 14 13 13
28 28 28 27 26 26 25 24 24 23 23 23 23 23 22 19 16 16 17 16 15 16 16 15 15 14 13 13 13 13 14 15 16 16 15 16 16 17 19 19 17 15 14 14 13
31 31 31 30 29 28 27 26 26 26 25 25 25 25 22 19 20 18 17 17 17 17 16 16 15 14 13 14 15 14 14 13 14 15 16 15 17 18 17 16 14 14 13 13 12
33 33 32 31 31 29 28 28 28 28 27 27 26 23 21 19 19 19 17 18 17 16 16 15 14 15 15 14 14 15 15 15 14 15 15 15 17 15 18 15 14 13 13 12 11
34 33 33 32 30 29 28 27 27 26 27 25 24 22 21 22 21 19 19 18 17 16 16 15 15 14 14 14 14 15 15 16 16 17 16 16 17 19 17 16 14 13 12 11 11
34 33 32 32 32 31 30 28 27 26 25 25 24 22 22 21 22 23 22 23 21 18 17 16 16 16 15 16 15 13 13 14 14 15 17 16 18 16 15 15 13 12 12 11 11
35 35 34 34 33 33 32 31 30 29 28 27 24 21 22 19 18 18 18 19 18 17 16 16 15 16 15 14 14 14 15 14 15 16 14 16 16 16 12 13 13 13 13 13 12
34 35 35 34 34 33 33 32 32 31 29 27 27 23 22 19 17 16 15 15 16 15 14 14 13 14 14 14 15 15 14 15 14 13 14 14 16 13 14 15 15 15 15 14 13
34 33 33 34 34 34 33 32 31 30 30 29 27 24 23 20 18 17 18 16 15 15 16 16 14 16 18 17 16 14 15 15 16 16 14 17 16 16 15 14 15 16 16 16 15
35 34 33 33 34 34 33 31 31 30 32 33 35 35 34 29 28 25 20 20 18 19 17 17 18 20 19 18 18 18 18 19 19 17 16 15 18 15 18 18 19 18 18 18 17
36 35 34 33 33 33 33 32 31 31 33 36 37 37 35 33 34 33 28 24 23 21 21 22 21 13 16 20 20 19 19 17 17 15 15 14 19 20 18 18 19 19 20 19 19
37 36 34 33 33 32 32 32 31 30 30 34 32 34 34 34 36 37 35 30 27 28 23 25 25 26 26 22 20 22 20 19 17 16 19 18 21 23 21 22 22 22 21 21 20
38 37 36 34 33 32 31 31 29 27 25 27 27 27 27 29 28 29 32 33 36 28 25 27 23 21 26 26 21 22 20 19 17 17 18 21 21 22 20 23 24 24 23 22 21
39 38 37 36 35 33 31 29 27 24 32 27 26 26 24 26 26 24 24 28 31 32 32 31 28 24 23 20 24 20 17 17 17 19 23 23 21 25 24 24 23 23 22 22 21
40 39 38 36 34 33 31 29 26 29 29 30 30 27 28 26 26 26 26 28 27 27 35 29 35 30 28 24 22 22 20 19 19 20 24 22 22 31 22 22 23 22 21 21 21
40 39 38 37 35 34 32 30 29 36 37 28 25 25 26 28 30 29 28 28 33 26 23 28 28 30 29 35 25 26 25 21 21 20 22 19 25 25 22 21 20 20 21 21 21
39 38 37 37 34 34 33 35 36 35 33 33 33 32 31 29 28 26 28 30 31 34 29 26 29 27 27 26 30 27 29 26 22 23 22 24 25 25 22 20 20 20 20 21 21
38 38 39 37 36 34 34 39 39 37 32 29 30 31 32 35 30 27 30 29 33 33 32 30 29 27 25 24 25 29 25 21 24 23 24 25 25 24 23 22 21 21 21 21 21
36 36 36 38 35 35 36 39 41 39 32 33 33 32 31 28 28 30 31 30 29 28 33 35 29 28 25 28 27 25 26 24 23 23 22 21 23 23 25 24 22 22 22 22 22
37 36 36 37 36 36 40 38 38 37 37 36 33 34 33 29 30 30 30 31 26 25 25 27 25 34 29 27 28 29 28 27 25 25 26 24 28 23 20 19 20 21 21 22 22
36 37 35 37 37 40 40 40 39 37 38 33 36 33 30 30 30 32 33 31 25 25 28 31 26 26 25 28 28 25 27 28 26 24 27 23 25 20 20 21 24 24 23 23 23
36 35 37 39 38 39 40 41 42 38 40 36 36 34 35 38 33 32 30 30 28 28 23 26 28 33 35 25 23 26 28 26 24 25 27 30 27 25 25 25 25 24 24 24 25
37 38 37 36 42 40 41 40 39 39 39 37 35 40 35 31 33 37 35 33 30 30 28 22 25 26 29 27 27 27 28 26 28 32 29 35 33 32 31 29 28 25 25 25 24
38 38 36 38 36 44 39 44 44 41 37 40 40 39 35 35 35 25 30 28 29 25 27 28 26 24 25 22 25 26 28 28 28 29 29 32 36 28 28 25 24 24 25 25 24
42 40 37 39 40 36 40 39 45 41 41 42 37 35 35 40 32 33 30 28 26 24 25 22 22 24 25 23 21 23 34 31 30 29 30 30 25 23 23 24 24 23 23 23 23
Wind_Direction
269 270 272 274 277 279 281 283 285 288 288 290 293 294 295 296 293 279 270 270 273 279 280 274 273 280 268 262 263 256 258 255 255 249 253 260 256 266 262 260 267 268 263 263 261
265 268 270 272 274 277 279 280 282 285 286 288 290 292 294 294 288 280 274 270 273 278 279 278 275 276 268 266 265 258 255 250 250 248 250 255 256 262 260 263 264 263 265 265 264
265 267 269 272 272 275 276 276 279 281 282 285 287 289 290 289 280 273 274 268 268 274 276 274 273 271 267 267 266 262 255 256 257 253 248 253 260 261 257 262 258 253 260 263 269
264 266 268 270 271 273 273 274 276 278 280 282 285 286 286 281 273 269 270 268 268 274 274 274 274 271 268 266 262 266 264 260 257 252 252 253 257 263 261 262 254 255 253 261 273
263 265 267 268 269 270 272 272 274 276 278 279 283 285 278 274 267 269 265 265 271 272 272 272 271 266 261 261 265 252 261 266 261 251 258 255 258 261 263 254 249 251 256 263 270
262 265 266 267 266 268 269 270 272 274 276 277 281 282 273 268 263 266 263 266 269 270 268 268 263 262 261 260 257 260 261 261 261 255 259 254 262 260 259 247 250 249 256 262 270
262 263 263 263 263 264 267 269 272 273 275 276 276 276 271 265 263 265 262 261 265 266 266 263 263 264 263 265 263 262 265 264 255 256 258 253 261 261 258 241 240 245 251 260 270
261 261 262 262 261 263 264 265 269 271 274 273 274 273 267 267 267 266 261 261 261 262 263 266 264 259 255 261 269 266 265 265 259 256 260 250 262 265 248 228 237 241 248 257 271
260 260 260 261 261 262 262 264 266 268 269 270 269 269 267 267 267 266 258 251 253 259 260 263 265 258 257 256 265 264 258 261 271 259 256 247 254 252 236 229 235 240 247 258 267
259 260 260 260 260 260 262 262 263 265 264 263 263 266 262 264 267 261 256 246 249 255 262 261 265 260 256 250 251 253 258 258 258 263 253 248 247 245 234 232 236 242 251 259 267
259 259 259 260 260 259 260 262 263 261 258 255 256 257 258 262 263 260 254 250 252 254 251 261 260 253 251 249 249 257 257 259 259 264 254 250 243 242 243 242 241 246 251 258 267
258 259 260 260 259 257 258 258 259 261 264 257 257 256 257 259 260 257 254 252 252 249 250 260 259 261 254 253 254 255 259 259 262 259 252 250 248 243 250 253 249 249 255 262 269
257 258 259 259 256 256 256 258 259 261 262 260 256 257 255 252 253 251 248 252 253 251 249 250 250 269 255 255 256 253 251 255 249 257 258 253 259 250 255 253 252 258 262 266 270
256 256 256 256 256 256 257 256 256 261 264 262 258 260 252 249 256 248 247 247 251 247 252 258 255 254 257 256 252 256 249 250 248 251 253 257 264 259 252 251 254 256 259 265 269
254 255 253 254 255 255 257 252 252 257 263 259 256 255 253 243 254 255 245 244 245 246 243 254 256 251 251 252 247 255 249 244 250 251 257 259 266 267 256 255 254 256 260 264 269
254 253 251 253 254 255 252 245 247 252 254 260 256 255 252 250 252 254 247 243 250 246 250 250 254 252 251 256 246 248 250 257 258 255 258 250 253 266 260 258 252 256 259 263 270
253 252 250 250 251 249 244 241 245 245 254 257 255 256 252 251 252 249 246 240 241 243 247 251 251 252 250 253 253 244 244 256 259 253 257 256 250 261 269 258 251 250 257 263 271
250 250 249 248 248 242 241 241 244 249 247 253 257 265 259 254 256 251 250 248 242 247 252 246 258 244 247 243 246 244 239 243 251 254 263 255 256 264 267 264 254 252 257 265 273
247 247 247 246 243 240 239 238 244 249 253 253 256 258 257 257 254 256 249 252 248 241 244 249 256 255 251 247 234 244 244 245 252 260 262 258 263 265 260 259 253 252 256 264 272
245 246 246 242 239 238 238 240 247 248 254 256 252 250 254 252 254 253 250 257 252 248 246 252 259 256 254 245 245 240 240 247 250 250 256 262 262 261 251 250 251 253 256 264 273
243 245 245 236 235 236 238 243 247 249 250 251 253 255 254 256 254 253 253 257 256 254 244 246 250 253 250 246 238 242 244 247 248 245 251 261 262 271 251 248 247 252 257 264 272
242 244 242 232 234 239 240 243 247 248 247 249 254 252 253 255 255 253 255 251 262 255 244 245 251 250 248 252 247 246 243 241 245 249 252 254 262 269 257 252 248 250 259 266 272
242 242 241 232 236 239 243 244 246 246 243 247 247 248 253 253 254 251 252 252 260 260 256 247 245 247 249 249 249 245 245 247 248 253 251 251 259 262 261 255 253 256 261 267 272
239 240 239 237 240 238 239 241 243 244 246 245 249 249 250 252 250 256 254 253 254 250 257 250 245 241 243 250 246 244 245 246 246 250 257 257 264 259 255 255 256 258 263 268 274
236 240 240 239 238 241 240 242 242 243 243 242 248 244 247 252 253 252 254 254 252 250 246 250 254 255 250 245 247 247 248 247 245 253 254 264 263 262 253 255 254 258 263 268 273
237 238 241 241 242 238 243 238 241 242 242 242 245 246 247 248 248 255 248 248 248 250 250 246 245 254 255 248 243 244 246 246 249 247 257 264 263 264 255 252 250 256 260 266 270
237 240 242 243 242 241 240 245 240 242 245 245 244 245 244 245 246 248 249 248 248 243 237 240 240 241 248 247 251 254 248 249 253 255 255 258 266 260 253 248 251 256 260 265 271